Flag for Romania Weather past 2 weeks in Brăila, Romania

Now
70 °F

Fog.


Feels Like: 66 °F
Forecast: 67 / 90 °F
Wind: 2 mph from North

Location: Galati

Current Time: Jul 24, 2014 at 10:36:00 AM

Latest Report: Jul 24, 2014 at 10:00 AM


Visibility: 2 mi

Pressure: 29.79 "Hg

Humidity: 93%

Dew point: 68 °F

Location of BrăilaLocation

Historic Weather in Brăila — Graph

°F

Brăila temperature yesterday

Maximum temperature yesterday: 83 °F (at 4:00 PM)
Minimum temperature yesterday: 66 °F (at 7:00 PM)
Average temperature yesterday: 69 °F

Past Weeks' High & Low Weather Summary

 TemperatureHumidityPressure
High93 °F (Jul 22, 5:00 PM)100% (Jul 23, 7:00 AM)29.96 "Hg (Jul 23, 7:00 AM)
Low63 °F (Jul 12, 6:00 AM)29% (Jul 21, 4:00 PM)29.55 "Hg (Jul 11, 5:00 PM)
Average74 °F68%29.83 "Hg
* Reported Jul 9 11:00 AM — Jul 24 9:00 AM, Brăila, Weather by CustomWeather, © 2014

Note: Actual official high and low records may vary slightly from our data, if they occured in-between our weather recording intervals... More about our weather records

Advertising

Brăila weather history for previous 24 hours

 ConditionsComfort  
Time TempWeatherWind HumidityBarometerVisibility
9:00 AM
Jul 24
67 °FFog.2 mph100%29.80 "Hg1 mi
8:00 AM66 °FFog.5 mph99%29.79 "Hg2 mi
7:00 AM65 °FFog.3 mph99%29.79 "Hg2 mi
6:00 AM65 °FFog.3 mph99%29.78 "Hg2 mi
5:00 AM65 °FClear.3 mph98%29.78 "Hg6 mi
4:00 AM66 °FPassing clouds.2 mph99%29.78 "HgN/A
3:00 AM66 °FClear.2 mph99%29.78 "Hg6 mi
2:00 AM67 °FPassing clouds.3 mph100%29.79 "Hg6 mi
1:00 AM68 °FPassing clouds.3 mph100%29.80 "Hg6 mi
12:00 AM67 °FPassing clouds.5 mph100%29.80 "Hg6 mi
11:00 PM
Jul 23
67 °FPassing clouds.3 mph100%29.80 "Hg6 mi
10:00 PM67 °FPassing clouds.2 mph95%29.78 "Hg6 mi
9:00 PM66 °FPassing clouds.2 mph95%29.76 "Hg6 mi
8:00 PM66 °FThunderstorms. Overcast.2 mph95%29.78 "Hg6 mi
7:00 PM66 °FThundershowers. Overcast.1 mph95%29.80 "Hg6 mi
6:00 PM66 °FThundershowers. Overcast.1 mph100%29.76 "Hg6 mi
5:00 PM81 °FPartly sunny.5 mph59%29.75 "Hg6 mi
4:00 PM83 °FOvercast.3 mph54%29.74 "Hg12 mi
Weather by CustomWeather, © 2014

See weather overviewHow to use our weather pages